This is the latest recevied weather packets stored in our database for station/object W0VI. If no packets are shown the sender has not sent any weather packets the latest 10 day(s).
| Time | Temp. | Humidity | Pressure | Rain* | Wind** | Luminosity | Snow |
|---|---|---|---|---|---|---|---|
| 1778110044 | 6.67° C | 48% | 1015.4 hPa | 0 mm | - | 68 W/m² | - |
| 1778109739 | 7.22° C | 48% | 1015.4 hPa | 0 mm | - | 75 W/m² | - |
| 1778109436 | 6.67° C | 48% | 1015.6 hPa | 0 mm | - | 83 W/m² | - |
| 1778109135 | 6.67° C | 48% | 1015.5 hPa | 0 mm | - | 90 W/m² | - |
| 1778108831 | 7.22° C | 48% | 1015.3 hPa | 0 mm | - | 99 W/m² | - |
| 1778108528 | 6.67° C | 48% | 1015.4 hPa | 0 mm | - | 106 W/m² | - |
| 1778108224 | 7.22° C | 49% | 1015.4 hPa | 0 mm | - | 107 W/m² | - |
| 1778107921 | 7.22° C | 49% | 1015.3 hPa | 0 mm | - | 99 W/m² | - |
| 1778107618 | 7.22° C | 49% | 1015.4 hPa | 0 mm | - | 108 W/m² | - |
| 1778107315 | 7.22° C | 48% | 1015.6 hPa | 0 mm | - | 104 W/m² | - |
| 1778107011 | 7.22° C | 48% | 1015.7 hPa | 0 mm | - | 105 W/m² | - |
| 1778106707 | 7.22° C | 49% | 1015.6 hPa | 0 mm | - | 118 W/m² | - |
| 1778106404 | 6.67° C | 48% | 1015.6 hPa | 0 mm | - | 137 W/m² | - |
| 1778106100 | 7.22° C | 48% | 1015.7 hPa | 0 mm | - | 146 W/m² | - |
| 1778105798 | 6.67° C | 48% | 1015.7 hPa | 0 mm | - | 174 W/m² | - |
| 1778105496 | 6.67° C | 48% | 1015.8 hPa | 0 mm | - | 159 W/m² | - |
| 1778105192 | 6.67° C | 49% | 1015.4 hPa | 0 mm | - | 182 W/m² | - |
| 1778104887 | 7.22° C | 48% | 1015.6 hPa | 0 mm | - | 164 W/m² | - |
| 1778104584 | 6.67° C | 48% | 1015.8 hPa | 0 mm | - | 156 W/m² | - |
| 1778104280 | 6.67° C | 48% | 1015.8 hPa | 0 mm | - | 169 W/m² | - |
| 1778103977 | 6.67° C | 48% | 1015.7 hPa | 0 mm | - | 178 W/m² | - |
| 1778103674 | 6.67° C | 48% | 1015.9 hPa | 0 mm | - | 178 W/m² | - |
| 1778103372 | 6.67° C | 48% | 1015.8 hPa | 0 mm | - | 199 W/m² | - |
| 1778103069 | 6.67° C | 49% | 1015.8 hPa | 0 mm | - | 187 W/m² | - |
| 1778102766 | 6.67° C | 49% | 1015.9 hPa | 0 mm | - | 203 W/m² | - |
* Rain latest hour (hover to see other rain measurements)
** Current wind speed in m/s (hover to see current wind gust speed)